TimeCDT,TemperatureF,Dew PointF,Humidity,Sea Level PressureIn,VisibilityMPH,Wind Direction,Wind SpeedMPH,Gust SpeedMPH,PrecipitationIn,Events,Conditions,WindDirDegrees,DateUTC
12:53 AM,55.9,48.0,75,30.00,10.0,SE,5.8,-,N/A,,Clear,140,2013-06-03 05:53:00
1:53 AM,55.9,48.9,77,29.99,10.0,SE,8.1,-,N/A,,Clear,140,2013-06-03 06:53:00
2:53 AM,55.0,48.9,80,29.99,10.0,SE,8.1,-,N/A,,Clear,130,2013-06-03 07:53:00
3:53 AM,53.1,48.9,86,30.01,10.0,SSE,8.1,-,N/A,,Clear,150,2013-06-03 08:53:00
4:53 AM,53.1,48.9,86,29.99,10.0,SE,8.1,-,N/A,,Clear,140,2013-06-03 09:53:00
5:53 AM,52.0,48.0,86,29.99,10.0,SE,8.1,-,N/A,,Clear,130,2013-06-03 10:53:00
6:53 AM,53.1,48.9,86,30.00,10.0,SSE,11.5,-,N/A,,Clear,150,2013-06-03 11:53:00
7:53 AM,57.0,51.1,81,30.00,10.0,SSE,11.5,-,N/A,,Clear,160,2013-06-03 12:53:00
8:53 AM,61.0,52.0,72,30.00,10.0,SSE,15.0,-,N/A,,Clear,160,2013-06-03 13:53:00
9:53 AM,63.0,52.0,67,29.98,10.0,SSE,12.7,-,N/A,,Clear,150,2013-06-03 14:53:00
10:53 AM,66.9,52.0,59,29.94,10.0,SE,15.0,-,N/A,,Clear,140,2013-06-03 15:53:00
11:53 AM,71.1,54.0,55,29.92,10.0,SSE,17.3,23.0,N/A,,Clear,150,2013-06-03 16:53:00
12:53 PM,73.0,54.0,51,29.88,10.0,SE,21.9,29.9,N/A,,Clear,140,2013-06-03 17:53:00
1:53 PM,73.9,55.0,52,29.86,10.0,SSE,18.4,25.3,N/A,,Clear,150,2013-06-03 18:53:00
2:53 PM,77.0,55.0,47,29.83,10.0,SE,19.6,29.9,N/A,,Clear,140,2013-06-03 19:53:00
3:53 PM,79.0,55.0,44,29.80,10.0,SSE,23.0,28.8,N/A,,Clear,150,2013-06-03 20:53:00
4:53 PM,80.1,57.0,45,29.77,10.0,SSE,18.4,25.3,N/A,,Clear,150,2013-06-03 21:53:00
5:53 PM,80.1,57.0,45,29.76,10.0,SSE,17.3,26.5,N/A,,Clear,160,2013-06-03 22:53:00
6:53 PM,79.0,57.0,47,29.76,10.0,SSE,18.4,-,N/A,,Clear,150,2013-06-03 23:53:00
7:53 PM,75.9,55.0,48,29.76,10.0,SE,15.0,-,N/A,,Clear,140,2013-06-04 00:53:00
8:53 PM,73.0,57.0,57,29.77,10.0,SE,12.7,-,N/A,,Clear,130,2013-06-04 01:53:00
9:53 PM,71.1,57.0,61,29.75,10.0,SE,16.1,-,N/A,,Clear,130,2013-06-04 02:53:00
10:53 PM,71.1,59.0,66,29.78,10.0,SE,17.3,-,N/A,,Clear,130,2013-06-04 03:53:00
11:53 PM,70.0,60.1,71,29.76,10.0,ESE,17.3,-,N/A,,Clear,120,2013-06-04 04:53:00